Regional Weather Roundup
Issued by NWS

Home | Current Version | Previous Version | Graphics & Text | Print | Product List | Glossary On
Versions: 1 2 3 4 5 6 7 8 9 10 11 12 13 14 15 16 17 18 19 20 21 22 23 24 25 26 27 28 29 30 31 32 33 34 35 36 37 38 39 40 41 42 43 44 45 46 47 48 49 50
727
ASUS45 KPSR 162110
RWRAZ

ARIZONA HOURLY REGIONAL WEATHER ROUNDUP
NATIONAL WEATHER SERVICE PHOENIX AZ
200 PM MST MON JAN 16 2017

NOTE: FAIR INDICATES FEW OR NO CLOUDS BELOW 12,000 FEET WITH NO
SIGNIFICANT WEATHER AND/OR OBSTRUCTIONS TO VISIBILITY.

AZZ001>003-036-162200-
NORTHWEST ARIZONA

CITY           SKY/WX    TMP DP  RH WIND       PRES   REMARKS
BULLHEAD CITY  MOSUNNY   57  25  28 N21G30    30.06F
KINGMAN        MOSUNNY   48  26  42 N10       30.04F
$$

AZZ004>008-015-016-018-162200-
NORTH CENTRAL ARIZONA

CITY           SKY/WX    TMP DP  RH WIND       PRES   REMARKS
GRAND CANYON   CLOUDY    40  31  70 SW3       30.02F
WILLIAMS       CLOUDY    39  32  75 N6        30.02F WCI  35
PRESCOTT       PTSUNNY   48  34  58 CALM      30.01F
FLAGSTAFF      CLOUDY    39  27  62 CALM      30.00F
PAYSON         DRIZZLE   45  39  81 VRB6      30.03F
PAGE           MOSUNNY   47  24  40 CALM      30.02F
$$

AZZ009>014-017-162200-
NORTHEAST ARIZONA

CITY           SKY/WX    TMP DP  RH WIND       PRES   REMARKS
WINSLOW        PTSUNNY   48  37  65 N8        30.00F
SAINT JOHNS    CLOUDY    45  34  65 VRB3      29.97F
SHOW LOW       PTSUNNY   39  32  75 CALM      30.00F
$$

AZZ023-162200-
GREATER PHOENIX AREA

CITY           SKY/WX    TMP DP  RH WIND       PRES   REMARKS
PHOENIX        PTSUNNY   62  43  49 SW5       29.99F
BUCKEYE        SUNNY     59  45  58 W5        30.01F
GLENDALE       PTSUNNY   61  45  55 S3        30.02F
LUKE AFB       SUNNY     59  46  60 SW6       29.99F
DEER VALLEY    SUNNY     58  43  57 VRB5      29.99F
SCOTTSDALE     MOSUNNY   60  41  49 VRB6      30.00F
MESA-FALCON    PTSUNNY  N/A N/A N/A W8        29.97F
MESA-GATEWAY   PTSUNNY   57  45  62 CALM      30.01F
CHANDLER       PTSUNNY   59  46  63 CALM      30.00F
$$

AZZ027-028-162200-
SOUTHWEST MARICOPA COUNTY AND PINAL COUNTY

CITY           SKY/WX    TMP DP  RH WIND       PRES   REMARKS
CASA GRANDE    PTSUNNY   59  45  59 VRB5      30.01F
$$

AZZ503-504-507>509-162200-
SOUTHEAST ARIZONA

CITY           SKY/WX    TMP DP  RH WIND       PRES   REMARKS
TUCSON         MOSUNNY   57  40  52 VRB7      30.00F
DAVIS-MONTHAN  PTSUNNY   57  42  56 N9        29.99F
RYAN FIELD     SUNNY     57  39  51 W7        30.01F
NOGALES        CLOUDY    53  37  54 NW5       29.98F
SIERRA VISTA   CLOUDY    49  33  54 CALM      30.00S
DOUGLAS        CLOUDY    51  36  56 S8        29.99F
SAFFORD        PTSUNNY   55  42  61 W6        29.97F
$$

AZZ020-021-025-026-031-162200-
SOUTHWEST ARIZONA

CITY           SKY/WX    TMP DP  RH WIND       PRES   REMARKS
YUMA           SUNNY     66  43  43 NE9       30.01F
$$

CAZ031-033-041-043-047-048-061-162200-
SOUTHERN CALIFORNIA

CITY           SKY/WX    TMP DP  RH WIND       PRES   REMARKS
DOWNTOWN L.A.  SUNNY     65  49  56 CALM      30.02F
L.A. AIRPORT   MOSUNNY   60  51  72 W12       30.04F
SAN DIEGO      PTSUNNY   63  49  60 NW8G18    30.03F
BURBANK        SUNNY     61  45  55 S6        30.02F
ONTARIO        MOSUNNY   62  45  53 W7        30.01F
RIVERSIDE      SUNNY     61  28  28 N10G18    30.00F
PALM SPRINGS   SUNNY     66  31  27 S6        30.03F
EL CENTRO NAS  MOSUNNY   65  45  48 CALM      30.04F
IMPERIAL       MOSUNNY   63  51  65 CALM      30.02F
BLYTHE         MOSUNNY   64  29  26 N12       30.03F
NEEDLES        MOSUNNY   60  25  26 NE18      30.06F
$$

NVZ020-UTZ003-162200-
SOUTHERN NEVADA-UTAH

CITY           SKY/WX    TMP DP  RH WIND       PRES   REMARKS
LAS VEGAS      MOSUNNY   54  17  23 N8G17     30.08F
SALT LAKE CITY MOSUNNY   29  19  66 NW5       30.26F WCI  24
$$

NMZ009-TXZ055-162200-
NEW MEXICO-WEST TEXAS

CITY           SKY/WX    TMP DP  RH WIND       PRES   REMARKS
ALBUQUERQUE    PTSUNNY   46  36  68 CALM      29.97F
EL PASO        MOSUNNY   54  35  48 W14       29.97F
$$


........................KEY........................
SKY/WX - SKY CONDITION/WEATHER
TMP    - TEMPERATURE IN FAHRENHEIT
DP     - DEW POINT IN FAHRENHEIT
RH     - RELATIVE HUMIDITY IN PERCENT
WIND   - DIRECTION AND SPEED IN MILES PER HOUR (MPH)
VRB    - VARIABLE WIND DIRECTION
PRES   - MEAN SEA LEVEL PRESSURE IN INCHES OF MERCURY
         F - FALLING PRESSURE   R - RISING PRESSURE
         S - STEADY PRESSURE
VSB    - VISIBILITY IN MILES
HX     - HEAT INDEX IN FAHRENHEIT
WCI    - WIND CHILL INDEX IN FAHRENHEIT
TC     - TEMPERATURE IN CELSIUS WHICH IS ALSO KNOWN AS
         TEMPERATURE IN CENTIGRADE
AFB    - AIR FORCE BASE
         LUKE AFB IS LUKE AIR FORCE BASE
         DAVIS-MONTHAN IS DAVIS-MONTHAN AIR FORCE BASE
NAS    - NAVAL AIR STATION
         EL CENTRO NAS IS EL CENTRO NAVAL AIR STATION
N/A    - NOT AVAILABLE





USA.gov is the U.S. government's official web portal to all federal, state and local government web resources and services.